User: anonymous   Login
Location: Unspecified
(0.0000°N, 0.0000°E)
Time: 15:54:06
(UTC+00:00)
Language:

UKube-1 - Orbit

View from above orbital plane
View from above orbital plane
View from above satellite
View from above satellite

Ground track
Ground track

The orbit data is extracted from the following two-line orbital elements,

1 40074U 14037F   19078.74109745  .00000302  00000-0  43525-4 0  9990
2 40074  98.4220 235.5955 0005072 133.3271 226.8378 14.83987164254165
Epoch (UTC): 19 March 2019 17:47:10
Eccentricity: 0.0005072
inclination: 98.4220°
perigee height: 613 km
apogee height: 620 km
right ascension of ascending node: 235.5955°
argument of perigee: 133.3271°
revolutions per day: 14.83987164
mean anomaly at epoch: 226.8378°
orbit number at epoch: 25416

The dashed part of the orbit path shows where the satellite is in the earth's shadow,  

DLR